EZY41JK LICJ-EGKK

Flight info

Callsign EZY41JK
Flight time N/A
Altitude 34000
Route GIANO6R GIANO DCT ABKON DCT SUKUN DCT RUGOX DCT MADKA DCT AJO DCT OMEDA DCT MERLU DCT PIGOS DCT BARSO DCT OKTET DCT GIPNO DCT BULOL DCT IDAVO DCT BAGBI DCT SIZZA DCT LAULY DCT BRY DCT CLM DCT KOPOR DCT KESAX DCT KUNAV KUNAV1G
Aircraft A320/M-SDE3FGHIRWY/LB1

Departure

Time 2026-05-04 09:29
Airport Falcone–Borsellino Airport (LICJ)

Arrival

Time N/A
Airport London Gatwick Airport (EGKK)
Time Latitude Longitude Altitude Speed Heading
2026-05-04 09:10 38.18566 13.10664 65 ft 0 kts 337°
2026-05-04 09:19 38.18547 13.10676 63 ft 4 kts 322°
2026-05-04 09:20 38.18529 13.10700 56 ft 4 kts 298°
2026-05-04 09:20 38.18521 13.10732 57 ft 4 kts 275°
2026-05-04 09:20 38.18522 13.10765 56 ft 4 kts 251°
2026-05-04 09:20 38.18524 13.10774 57 ft 0 kts 246°
2026-05-04 09:23 38.18523 13.10772 57 ft 3 kts 246°
2026-05-04 09:23 38.18488 13.10668 58 ft 16 kts 247°
2026-05-04 09:23 38.18449 13.10549 60 ft 14 kts 244°
2026-05-04 09:23 38.18374 13.10493 62 ft 13 kts 200°
2026-05-04 09:25 38.18080 13.09967 61 ft 19 kts 247°
2026-05-04 09:25 38.18027 13.09811 60 ft 19 kts 247°
2026-05-04 09:26 38.17973 13.09650 62 ft 19 kts 247°
2026-05-04 09:26 38.17920 13.09491 63 ft 19 kts 247°
2026-05-04 09:26 38.17874 13.09351 64 ft 15 kts 247°
2026-05-04 09:26 38.17835 13.09237 69 ft 17 kts 246°
2026-05-04 09:27 38.17781 13.09076 63 ft 22 kts 248°
2026-05-04 09:27 38.17712 13.08930 66 ft 15 kts 221°
2026-05-04 09:27 38.17628 13.08848 65 ft 19 kts 216°
2026-05-04 09:27 38.17542 13.08767 61 ft 7 kts 216°
2026-05-04 09:28 38.17506 13.08760 66 ft 7 kts 158°
2026-05-04 09:28 38.17490 13.08819 68 ft 8 kts 77°
2026-05-04 09:28 38.17501 13.08857 63 ft 0 kts 66°
2026-05-04 09:28 38.17525 13.08926 68 ft 31 kts 66°
2026-05-04 09:29 38.17707 13.09466 64 ft 98 kts 66°
2026-05-04 09:29 38.18051 13.10492 66 ft 151 kts 67°
2026-05-04 09:29 38.18505 13.11821 377 ft 171 kts 65°
2026-05-04 09:29 38.19000 13.13270 904 ft 184 kts 69°
2026-05-04 09:30 38.19524 13.14834 1312 ft 200 kts 66°
2026-05-04 09:30 38.20088 13.16524 1730 ft 218 kts 67°
2026-05-04 09:30 38.20710 13.18332 2353 ft 227 kts 62°
2026-05-04 09:30 38.21744 13.19905 2935 ft 241 kts 36°
2026-05-04 09:31 38.23288 13.20909 3448 ft 258 kts 22°
2026-05-04 09:31 38.24943 13.21779 4198 ft 263 kts 21°
2026-05-04 09:31 38.26642 13.22665 5048 ft 266 kts 21°
2026-05-04 09:31 38.28364 13.23565 5878 ft 269 kts 21°
2026-05-04 09:32 38.30104 13.24478 6703 ft 271 kts 21°
2026-05-04 09:32 38.31858 13.25406 7494 ft 273 kts 22°
2026-05-04 09:34 38.44645 13.24647 11975 ft 316 kts 303°
2026-05-04 09:34 38.45890 13.22328 12723 ft 318 kts 303°
2026-05-04 09:34 38.47141 13.19980 13349 ft 325 kts 303°
2026-05-04 09:34 38.48426 13.17562 13917 ft 332 kts 303°
2026-05-04 09:35 38.49729 13.15114 14521 ft 335 kts 303°
2026-05-04 09:35 38.51046 13.12640 15032 ft 342 kts 303°
2026-05-04 09:35 38.52403 13.10099 15247 ft 357 kts 303°
2026-05-04 09:35 38.53814 13.07463 15738 ft 361 kts 304°
2026-05-04 09:37 38.63881 12.88543 19446 ft 376 kts 304°
2026-05-04 09:37 38.65354 12.85768 19941 ft 379 kts 303°
2026-05-04 09:38 38.66814 12.83007 20439 ft 381 kts 303°
2026-05-04 09:38 38.68304 12.80189 20903 ft 385 kts 303°
2026-05-04 09:38 38.69814 12.77329 21278 ft 390 kts 303°
2026-05-04 09:38 38.71342 12.74428 21660 ft 395 kts 303°
2026-05-04 09:39 38.72880 12.71498 22013 ft 400 kts 303°
2026-05-04 09:39 38.74441 12.68522 22266 ft 406 kts 303°
2026-05-04 09:39 38.76012 12.65539 22529 ft 411 kts 303°
2026-05-04 09:39 38.77619 12.62491 22793 ft 416 kts 303°
2026-05-04 09:40 38.79243 12.59412 23060 ft 420 kts 302°
2026-05-04 09:40 38.80894 12.56277 23330 ft 424 kts 302°
2026-05-04 09:40 38.82548 12.53126 23603 ft 427 kts 302°
2026-05-04 09:40 38.84207 12.49952 23855 ft 430 kts 302°
2026-05-04 09:41 38.85876 12.46749 24080 ft 433 kts 302°
2026-05-04 09:42 38.99105 12.25329 25712 ft 441 kts 307°
2026-05-04 09:43 39.01028 12.22260 25960 ft 440 kts 307°
2026-05-04 09:43 39.02937 12.19183 26206 ft 440 kts 307°
2026-05-04 09:43 39.04838 12.16104 26444 ft 439 kts 307°
2026-05-04 09:43 39.06735 12.13025 26692 ft 438 kts 307°
2026-05-04 09:44 39.08627 12.09957 26940 ft 437 kts 307°
2026-05-04 09:44 39.10495 12.06935 27193 ft 436 kts 307°
2026-05-04 09:44 39.12384 12.03885 27438 ft 435 kts 307°
2026-05-04 09:46 39.25447 11.82738 29299 ft 426 kts 307°
2026-05-04 09:46 39.27259 11.79790 29573 ft 424 kts 307°
2026-05-04 09:46 39.29093 11.76811 29848 ft 423 kts 307°
2026-05-04 09:47 39.30918 11.73842 30123 ft 421 kts 307°
2026-05-04 09:47 39.32732 11.70885 30384 ft 420 kts 306°
2026-05-04 09:49 39.45159 11.50530 32096 ft 407 kts 306°
2026-05-04 09:49 39.46908 11.47657 32358 ft 405 kts 306°
2026-05-04 09:49 39.48642 11.44799 32606 ft 403 kts 306°
2026-05-04 09:51 39.58858 11.27968 34116 ft 393 kts 305°
2026-05-04 09:51 39.62248 11.22339 34157 ft 399 kts 305°
2026-05-04 09:52 39.65686 11.16631 34159 ft 403 kts 305°
2026-05-04 09:52 39.69156 11.10865 34163 ft 406 kts 305°
2026-05-04 09:53 39.72615 11.05105 34173 ft 408 kts 304°
2026-05-04 09:53 39.76110 10.99268 34158 ft 410 kts 304°
2026-05-04 09:54 39.79021 10.94406 34155 ft 410 kts 304°
2026-05-04 09:54 39.83116 10.87570 34159 ft 410 kts 304°
2026-05-04 09:55 39.86025 10.82697 34159 ft 410 kts 305°
2026-05-04 09:55 39.88696 10.79190 34159 ft 417 kts 317°
2026-05-04 09:55 39.90990 10.76876 34160 ft 417 kts 317°
2026-05-04 09:56 39.94844 10.73012 34158 ft 417 kts 317°
2026-05-04 09:56 39.99413 10.68427 34175 ft 418 kts 317°
2026-05-04 09:57 40.04024 10.63782 34153 ft 419 kts 317°
2026-05-04 09:57 40.09389 10.58366 34147 ft 420 kts 317°
2026-05-04 09:58 40.13264 10.54446 34132 ft 421 kts 317°
2026-05-04 09:58 40.17865 10.49779 34149 ft 422 kts 317°
2026-05-04 10:00 40.36376 10.30929 34150 ft 422 kts 317°
2026-05-04 10:04 40.68870 9.97542 34123 ft 426 kts 316°
2026-05-04 10:04 40.73521 9.92706 34128 ft 426 kts 316°
2026-05-04 10:05 40.78132 9.87847 34121 ft 427 kts 315°
2026-05-04 10:05 40.82702 9.82839 34120 ft 427 kts 315°
2026-05-04 10:06 40.87253 9.77805 34112 ft 426 kts 314°
2026-05-04 10:06 40.91779 9.72829 34109 ft 426 kts 315°
2026-05-04 10:08 41.07849 9.55145 34109 ft 430 kts 315°
2026-05-04 10:08 41.12420 9.50100 34106 ft 431 kts 315°
2026-05-04 10:09 41.17022 9.45009 34104 ft 431 kts 314°
2026-05-04 10:09 41.21638 9.39883 34101 ft 434 kts 314°
2026-05-04 10:10 41.26269 9.34719 34102 ft 435 kts 314°
2026-05-04 10:10 41.30876 9.29578 34103 ft 435 kts 314°
2026-05-04 10:11 41.35515 9.24400 34108 ft 435 kts 314°
2026-05-04 10:11 41.40147 9.19206 34106 ft 435 kts 314°
2026-05-04 10:12 41.44795 9.13989 34103 ft 438 kts 315°
2026-05-04 10:12 41.49464 9.08746 34106 ft 439 kts 314°
2026-05-04 10:13 41.54098 9.03512 34108 ft 439 kts 314°
2026-05-04 10:13 41.58770 8.98232 34099 ft 440 kts 314°
2026-05-04 10:14 41.63439 8.92945 34103 ft 440 kts 314°
2026-05-04 10:16 41.80347 8.75046 34099 ft 453 kts 326°
2026-05-04 10:16 41.83113 8.73023 34084 ft 453 kts 326°
2026-05-04 10:16 41.88664 8.68966 34087 ft 455 kts 326°
2026-05-04 10:17 41.94194 8.64897 34086 ft 456 kts 326°
2026-05-04 10:19 42.16472 8.48427 34092 ft 457 kts 326°
2026-05-04 10:19 42.22011 8.44314 34090 ft 458 kts 326°
2026-05-04 10:20 42.27586 8.40159 34088 ft 458 kts 326°
2026-05-04 10:20 42.33163 8.35994 34077 ft 458 kts 326°
2026-05-04 10:21 42.38746 8.31827 34085 ft 459 kts 326°
2026-05-04 10:21 42.44312 8.27665 34086 ft 460 kts 326°
2026-05-04 10:22 42.52713 8.21363 34087 ft 460 kts 326°
2026-05-04 10:23 42.58315 8.17151 34096 ft 460 kts 326°
2026-05-04 10:25 42.80660 8.00248 34120 ft 460 kts 326°
2026-05-04 10:25 42.86246 7.95998 34120 ft 460 kts 325°
2026-05-04 10:26 42.91790 7.91761 34104 ft 460 kts 326°
2026-05-04 10:26 42.97381 7.87475 34098 ft 462 kts 326°
2026-05-04 10:27 43.02984 7.83182 34092 ft 462 kts 326°
2026-05-04 10:27 43.08588 7.78888 34092 ft 462 kts 326°
2026-05-04 10:28 43.14149 7.74604 34092 ft 462 kts 325°
2026-05-04 10:28 43.19740 7.70277 34090 ft 462 kts 325°
2026-05-04 10:29 43.25334 7.65935 34095 ft 462 kts 326°
2026-05-04 10:29 43.30928 7.61594 34096 ft 462 kts 325°
2026-05-04 10:30 43.36524 7.57245 34101 ft 462 kts 325°
2026-05-04 10:30 43.42088 7.52915 34103 ft 463 kts 325°
2026-05-04 10:31 43.47683 7.48560 34091 ft 463 kts 325°
2026-05-04 10:32 43.67133 7.32913 34435 ft 457 kts 321°
2026-05-04 10:33 43.69761 7.30469 34671 ft 454 kts 320°
2026-05-04 10:33 43.72350 7.28010 34912 ft 450 kts 320°
2026-05-04 10:33 43.74926 7.25560 35155 ft 448 kts 320°
2026-05-04 10:33 43.77495 7.23145 35403 ft 446 kts 321°
2026-05-04 10:34 43.80068 7.20761 35646 ft 444 kts 321°
2026-05-04 10:34 43.82604 7.18435 35902 ft 442 kts 321°
2026-05-04 10:34 43.85167 7.16090 36075 ft 443 kts 321°
2026-05-04 10:34 43.87741 7.13730 36118 ft 445 kts 321°
2026-05-04 10:35 43.92931 7.08947 36124 ft 449 kts 321°
2026-05-04 10:35 43.98157 7.04108 35856 ft 455 kts 321°
2026-05-04 10:36 44.00795 7.01660 35653 ft 457 kts 321°
2026-05-04 10:36 44.03448 6.99197 35478 ft 461 kts 321°
2026-05-04 10:36 44.06120 6.96718 35283 ft 463 kts 321°
2026-05-04 10:36 44.08766 6.94253 35105 ft 464 kts 321°
2026-05-04 10:37 44.14126 6.89254 35146 ft 464 kts 321°
2026-05-04 10:37 44.19499 6.84238 35173 ft 465 kts 321°
2026-05-04 10:39 44.38305 6.66597 35143 ft 466 kts 320°
2026-05-04 10:40 44.43682 6.61516 35153 ft 467 kts 321°
2026-05-04 10:40 44.49085 6.56399 35145 ft 469 kts 321°
2026-05-04 10:41 44.54499 6.51283 35136 ft 470 kts 321°
2026-05-04 10:41 44.59881 6.46192 35152 ft 470 kts 321°
2026-05-04 10:42 44.65302 6.41027 35138 ft 472 kts 320°
2026-05-04 10:42 44.70740 6.35824 35132 ft 473 kts 320°
2026-05-04 10:43 44.76182 6.30624 35126 ft 473 kts 320°
2026-05-04 10:45 44.97823 6.09829 35100 ft 471 kts 320°
2026-05-04 10:45 45.03236 6.04586 35093 ft 472 kts 320°
2026-05-04 10:46 45.08639 5.99359 35077 ft 474 kts 320°
2026-05-04 10:46 45.14083 5.94081 35066 ft 474 kts 320°
2026-05-04 10:47 45.19523 5.88773 35061 ft 475 kts 320°
2026-05-04 10:47 45.24045 5.84356 35065 ft 475 kts 320°
2026-05-04 10:49 45.46803 5.62023 35057 ft 480 kts 320°
2026-05-04 10:50 45.52291 5.56606 35058 ft 480 kts 320°
2026-05-04 10:52 45.74965 5.36017 35054 ft 486 kts 323°
2026-05-04 10:52 45.80836 5.31141 35053 ft 489 kts 327°
2026-05-04 10:54 46.05190 5.13496 35037 ft 491 kts 328°
2026-05-04 10:56 46.29489 4.95360 35029 ft 492 kts 328°
2026-05-04 10:57 46.35568 4.90783 35029 ft 492 kts 328°
2026-05-04 10:57 46.41645 4.86199 35029 ft 492 kts 328°
2026-05-04 10:58 46.47682 4.81648 35049 ft 493 kts 328°
2026-05-04 10:58 46.53782 4.77024 35027 ft 496 kts 328°
2026-05-04 10:59 46.59885 4.72387 35027 ft 496 kts 328°
2026-05-04 10:59 46.66005 4.67735 35012 ft 496 kts 328°
2026-05-04 11:00 46.72124 4.63075 35013 ft 496 kts 328°
2026-05-04 11:02 46.96546 4.44315 35003 ft 498 kts 328°
2026-05-04 11:05 47.42677 4.09145 34986 ft 498 kts 328°
2026-05-04 11:06 47.48841 4.04434 34983 ft 498 kts 328°
2026-05-04 11:06 47.54991 3.99717 34983 ft 497 kts 328°
2026-05-04 11:10 47.97820 3.66533 34979 ft 497 kts 328°
2026-05-04 11:12 48.22250 3.47328 34984 ft 496 kts 328°
2026-05-04 11:12 48.28335 3.42519 35006 ft 496 kts 328°
2026-05-04 11:13 48.34445 3.37668 34985 ft 497 kts 328°